TimeMDT,TemperatureF,Dew PointF,Humidity,Sea Level PressureIn,VisibilityMPH,Wind Direction,Wind SpeedMPH,Gust SpeedMPH,PrecipitationIn,Events,Conditions,WindDirDegrees,DateUTC
12:53 AM,44.1,24.1,45,30.06,10.0,SE,3.5,-,N/A,,Clear,140,2012-09-22 06:53:00
1:53 AM,45.0,25.0,46,30.06,10.0,Calm,Calm,-,N/A,,Clear,0,2012-09-22 07:53:00
2:53 AM,44.1,25.0,47,30.06,10.0,ENE,5.8,-,N/A,,Clear,70,2012-09-22 08:53:00
3:53 AM,42.1,25.0,51,30.07,10.0,ENE,4.6,-,N/A,,Clear,70,2012-09-22 09:53:00
4:53 AM,41.0,24.1,51,30.08,10.0,ENE,5.8,-,N/A,,Clear,70,2012-09-22 10:53:00
5:53 AM,37.9,24.1,57,30.12,10.0,NE,4.6,-,N/A,,Clear,50,2012-09-22 11:53:00
6:53 AM,36.0,24.1,62,30.16,10.0,ENE,4.6,-,N/A,,Clear,70,2012-09-22 12:53:00
7:53 AM,41.0,27.0,57,30.20,10.0,ENE,6.9,-,N/A,,Clear,60,2012-09-22 13:53:00
8:53 AM,54.0,25.0,33,30.19,10.0,East,4.6,-,N/A,,Clear,80,2012-09-22 14:53:00
9:53 AM,64.0,25.0,23,30.17,10.0,Calm,Calm,-,N/A,,Clear,0,2012-09-22 15:53:00
10:53 AM,72.0,18.0,13,30.16,10.0,Calm,Calm,-,N/A,,Clear,0,2012-09-22 16:53:00
11:53 AM,77.0,21.0,12,30.14,10.0,WSW,3.5,-,N/A,,Clear,240,2012-09-22 17:53:00
12:53 PM,81.0,16.0,9,30.12,10.0,SSW,10.4,-,N/A,,Clear,210,2012-09-22 18:53:00
1:53 PM,84.0,16.0,8,30.09,10.0,South,15.0,20.7,N/A,,Clear,190,2012-09-22 19:53:00
2:53 PM,82.9,14.0,8,30.07,10.0,WNW,10.4,18.4,N/A,,Clear,290,2012-09-22 20:53:00
3:53 PM,82.9,12.9,7,30.06,10.0,West,20.7,28.8,N/A,,Clear,270,2012-09-22 21:53:00
4:53 PM,82.0,15.1,8,30.05,10.0,West,6.9,-,N/A,,Clear,260,2012-09-22 22:53:00
5:53 PM,79.0,16.0,9,30.07,10.0,WSW,6.9,-,N/A,,Clear,240,2012-09-22 23:53:00
6:53 PM,73.0,26.1,17,30.09,10.0,South,5.8,-,N/A,,Clear,170,2012-09-23 00:53:00
7:53 PM,63.0,27.0,26,30.12,10.0,ENE,4.6,-,N/A,,Clear,60,2012-09-23 01:53:00
8:53 PM,55.9,25.0,30,30.11,10.0,ENE,9.2,-,N/A,,Clear,70,2012-09-23 02:53:00
9:53 PM,53.1,23.0,31,30.10,10.0,East,6.9,-,N/A,,Clear,80,2012-09-23 03:53:00
10:53 PM,51.1,23.0,33,30.09,10.0,East,5.8,-,N/A,,Clear,80,2012-09-23 04:53:00
11:53 PM,48.9,24.1,38,30.09,10.0,NE,4.6,-,N/A,,Clear,50,2012-09-23 05:53:00